COSMOS 2477 (745)

Last updated on Mon Nov 03 2025 00:03:33 GMT+0000 (Coordinated Universal Time)

1 37868U 11064B 25306.25413722 .00000035 00000+0 00000+0 0 9992 2 37868 65.1473 80.6179 0020137 231.4578 258.0157 2.13102791108928
UTC large
Height (km)
Speed (km/s)
/
Latitude / Longitude
Inclination (degrees)
Orbital Period (minutes)
Azimuth
Elevation
Range (km)
Doppler Factor

Next 0 passes for location: London (51.5072 / 0.1276)

Sorry there are no passes over London.